Погода в Дехканабаде

Узбекистан     40°31′54″N   69°02′01″E
темп.,
°C
ветер,
м/с
пор.,
м/с
влажн.,
%
обл.,
%
осадки,
мм/ч
давл.,
гПа
погр.,
м
1 июля, пт
пт123:00+27с36200 0.0 1005109
02:00+24з33230 0.0 100531
05:00+22з44230 0.0 100762
08:00+28зсз22190 0.0 1007262
11:00+34ссз34160 0.0 10061489
14:00+37сз55130 0.0 10052408
17:00+37сз55120 0.0 10042670
20:00+29сз44240 0.0 100439
2 июля, сб
сб223:00+25ссв36200 0.0 100579
02:00+23ссз11210 0.0 100414
05:00+22юз11220 0.0 100411
08:00+29сз23190 0.0 1005221
11:00+35ссз44140 0.0 10041290
14:00+38сз44110 0.0 10022386
17:00+38сз44110 0.0 10012338
20:00+30сз44190 0.0 100135
3 июля, вс
вс323:00+26ссв22200 0.0 100111
02:00+25ююз11230 0.0 100011
05:00+24с00230 0.0 100111
08:00+30зюз11190 0.0 1002216
11:00+37с22140 0.0 1000967
14:00+41ссв33100 0.0 9981805
17:00+42с2380 0.0 9961923
20:00+34з22140 0.0 99512
4 июля, пн
пн423:00+30с22190 0.0 99512
02:00+27ю22220 0.0 99512
05:00+26юз33250 0.0 99620
08:00+32зюз23220 0.0 998257
11:00+39зсз56150 0.0 9991299
14:00+40зсз88140 0.0 9992264
17:00+38сз88160 0.0 10002306
20:00+31сз512220 0.0 1002245
5 июля, вт
вт523:00+28сз613190 0.0 1005423
02:00+23з45240 0.0 100777
05:00+21зсз34290 0.0 100949
08:00+26с23270 0.0 1010415
11:00+31ссз44230 0.0 10091942
14:00+33сз55200 0.0 10072229
17:00+32сз65200 0.0 10062031
20:00+26сз33270 0.0 100638